4 106834 303373_3e4cee13b3_z.jpg
4 10802802545_a9b4132ffc_z.jpg
4 10802961384_71fee4c235_z.jpg

KOUN 251124Z 2512/2612 17008KT P6SM SCT025 BKN200

FM251700 19012G23KT P6SM SCT050 BKN200

FM260000 17010KT P6SM SCT040 SCT250
KOUN 251155Z AUTO 16007KT 10SM CLR 16/16 A3019 RMK AO2


Movie Night  Join us on Nov 11 to watch Toy Story (1995) on the hangar big screen.  Admission is free but seating is limited.  Tickets will be available here starting Nov 4 at noon.  Snacks will be for sale by the Sooner Aviation Club and seating is provided.

Field Trips and School Programs  Want to engage your class with enriching STEM activities?  Fill out the School Activity Survey on our Teacher page today.  Log-in and make sure you have Teacher access by updating your info in the menu on the left.

Summer Camp  2017 Summer camp schedules will be posted by November 1st.  Registration will open on March 1st.  Visit the summer camp page.  Learn more about summer camp and scholarships in our FAQ

Are you interested in learning how to decode the Terminal Area Forecast (TAF) located in the upper right corner of this News section?  Click here to link to the Aviation Weather Center explanation.

If you have attended any of our events, we would love to hear your feedback.  Click here for the form.  We would also love any recommendations you wanted to leave on Facebook.